Regional Weather Roundup
Issued by NWS

Home | Current Version | Previous Version | Graphics & Text | Print | Product List | Glossary On
Versions: 1 2 3 4 5 6 7 8 9 10 11 12 13 14 15 16 17 18 19 20 21 22 23 24 25 26 27 28 29 30 31 32 33 34 35 36 37 38 39 40 41 42 43 44 45 46 47 48 49 50
000
ASUS43 KLOT 162206
RWRIL

ILLINOIS REGIONAL WEATHER ROUNDUP
NATIONAL WEATHER SERVICE CHICAGO/ROMEOVILLE IL
500 PM CDT WED APR 16 2014

NOTE: "FAIR" INDICATES FEW OR NO CLOUDS BELOW 12,000 FEET WITH NO
SIGNIFICANT WEATHER AND/OR OBSTRUCTIONS TO VISIBILITY.

* THESE STATIONS ARE NOT UNDER NWS QUALITY CONTROL. THEY ALSO MAY NOT
  REPORT WEATHER SUCH AS PRECIPITATION OR FOG.

ILZ001-002-007-009-015-016-024-162300-
NORTHWEST ILLINOIS

CITY           SKY/WX    TMP DP  RH WIND       PRES   REMARKS
MOLINE         MOSUNNY   56  24  29 SE17G35   29.98F
STERLING*      MOSUNNY   55  28  35 S13G22    30.04F
SAVANNA*       MOSUNNY   57  26  30 SE26G33   30.00F
$$

ILZ003-004-008-010-011-017-018-162300-
NORTH CENTRAL ILLINOIS

CITY           SKY/WX    TMP DP  RH WIND       PRES   REMARKS
ROCKFORD       PTSUNNY   53  28  38 S25G32    30.09F
FREEPORT*      MOSUNNY   54  30  40 S25G35    30.05F
ROCHELLE*      SUNNY     53  30  41 S22G36    30.08F
DE KALB*       SUNNY     51  28  41 S25G36    30.11F
PERU*          SUNNY     55  28  36 S25G31    30.08F
$$

ILZ005-006-012>014-019>023-162300-
NORTHEAST ILLINOIS

CITY           SKY/WX    TMP DP  RH WIND       PRES   REMARKS
CHICAGO-OHARE  PTSUNNY   52  24  33 SE22G30   30.14F
CHICAGO-MIDWAY PTSUNNY   51  23  33 SE20G29   30.16F
AURORA         MOSUNNY   53  27  36 SE22G31   30.11F
LANSING*       SUNNY     50  24  36 SE16G25   30.18F
WAUKEGAN       MOSUNNY   44  28  53 SE20G30   30.14F
DUPAGE AIRPORT MOSUNNY   53  25  33 S20G32    30.12F
KANKAKEE*      SUNNY     52  27  37 SE20G25   30.17S
WHEELING       MOSUNNY   52  25  35 SE16G25   30.15F
MORRIS*        MOSUNNY   54  19  24 SE22G30   30.12F
NORTHERLY ISL    N/A     49  30  48 SE21        N/A
$$

LMZ740>746-162300-
SOUTHERN LAKE MICHIGAN

STATION/POSITION SKY/WX   TEMP    WIND        PRES    VSBY  WAVE
                          AIR SEA DIR/SP/G                  HT/PER
                          (F)     (DEG/KT/KT) (MB)    (MI)  (FT/S)
WAUKEGAN HARBOR            40     120/ 20/ 22 1022.4F
HARRISON CRIB              45     140/ 17/ 21   N/A
BURNHAM HARBOR             49     140/ 19/ 21   N/A
CALUMET HARBOR             49     140/ 19/ 24 1022.4F
MICHIGAN CITY              48     110/ 17/ 22   N/A
$$

ILZ025>027-034>036-040-047-049-050-058-095>099-162300-
WEST-CENTRAL ILLINOIS

CITY           SKY/WX    TMP DP  RH WIND       PRES   REMARKS
QUINCY         MOSUNNY   58  27  30 SE23G32   29.97F
GALESBURG*     MOSUNNY   55  29  37 SE20G31   30.00F
MACOMB*        MOSUNNY   56  28  33 S30       30.03S
JACKSONVILLE*  SUNNY     56  28  33 SE21G30   30.06F
PITTSFIELD*    SUNNY     58  26  29 SE23G29   30.03F
$$

ILZ028>032-037-038-041>044-048-051>054-059>061-162300-
CENTRAL ILLINOIS

CITY           SKY/WX    TMP DP  RH WIND       PRES   REMARKS
PONTIAC        SUNNY     55  27  33 S24G31    30.11F
BLOOMINGTON    SUNNY     53  24  32 S28G36    30.11F
DECATUR        SUNNY     54  26  34 S18G30    30.13F
PEORIA         SUNNY     56  26  31 S24G37    30.06F
LACON*         SUNNY     54  29  37 S18G29    30.06F
LINCOLN*       SUNNY     55  27  33 S21G31    30.09F
SPRINGFIELD    SUNNY     56  27  32 SE24G32   30.09F
TAYLORVILLE    SUNNY     52  27  37 SE21G26   30.10F
$$

ILZ033-039-045-046-055>057-062-063-162300-
EAST-CENTRAL ILLINOIS

CITY           SKY/WX    TMP DP  RH WIND       PRES   REMARKS
CHAMPAIGN      SUNNY     53  26  35 SE20G31   30.14F
RANTOUL*       SUNNY     54  25  32 SE21      30.16F
MATTOON        SUNNY     52  28  39 S17G24    30.15F
PARIS*         MOSUNNY   53  28  38 SE15      30.18F
$$

ILZ079-100>102-162300-
SOUTHWEST ILLINOIS

CITY           SKY/WX    TMP DP  RH WIND       PRES   REMARKS
ALTON          MOSUNNY   55  23  28 SE22      30.08F
BELLEVILLE     MOSUNNY   57  26  30 SE16G23   30.09F
CAHOKIA*       MOSUNNY   56  28  34 SE17G26   30.08F
SPARTA*        PTSUNNY   55  25  30 S12G21    30.12F
$$

ILZ064>066-069>071-074>076-080>082-084>086-088>090-092>094-162300-
SOUTH-CENTRAL ILLINOIS

CITY           SKY/WX    TMP DP  RH WIND       PRES   REMARKS
CARBONDALE     PTSUNNY   55  24  30 S15       30.14F
CAIRO*         MOSUNNY   59  29  31 SE10      30.15F
MARION         PTSUNNY   57  23  26 S14       30.14F
MT. VERNON     PTSUNNY   54  27  35 SE6       30.15F
CENTRALIA*       N/A     53  25  33 SE13G22   30.13F
SALEM*         PTSUNNY   54  30  39 S15       30.15F
METROPOLIS*    MOSUNNY   58  21  24 SE7       30.15F
$$

ILZ067-068-072-073-078-083-087-091-162300-
SOUTHEAST ILLINOIS

CITY           SKY/WX    TMP DP  RH WIND       PRES   REMARKS
FAIRFIELD*     PTSUNNY   54  32  43 SE16      30.16F
HARRISBURG*    MOSUNNY   55  31  39 E14       30.16F
ROBINSON*      MOSUNNY   54  29  38 SE15G21   30.19F
CARMI*         PTSUNNY   55  32  41 SE12      30.17F
$$

ABBREVIATIONS USED IN REMARKS
   TC - TEMPERATURE IN CELSIUS
  WCI - WIND CHILL INDEX
   HX - HEAT INDEX
  VSB - VISIBILITY
$$




USA.gov is the U.S. government's official web portal to all federal, state and local government web resources and services.